Temp
-7 -7 -7 -7 -8 -8 -8 -8 -8 -8 -8 -8 -8 -8 -8 -8 -8 -8 -8 -8 -8 -9 -9 -9 -9 -9 -9 -9 -9 -9 -9 -9 -9 -9 -9 -8 -8 -8 -8 -8 -8 -8 -8 -8 -8 -8 -8 -8 -7
-7 -7 -8 -8 -8 -8 -8 -8 -8 -8 -8 -8 -9 -9 -9 -9 -9 -9 -9 -9 -9 -9 -9 -9 -9 -9 -9 -9 -9 -9 -9 -10 -9 -9 -9 -9 -9 -9 -8 -9 -9 -9 -9 -8 -8 -8 -8 -8 -8
-8 -8 -8 -8 -8 -8 -8 -8 -8 -8 -8 -8 -9 -9 -9 -9 -9 -9 -9 -9 -9 -9 -9 -10 -10 -10 -10 -10 -10 -10 -10 -10 -10 -10 -10 -10 -10 -9 -9 -9 -9 -9 -9 -9 -9 -9 -9 -8 -8
-7 -8 -8 -8 -8 -8 -8 -8 -8 -8 -8 -9 -9 -9 -9 -9 -9 -9 -9 -9 -9 -9 -10 -10 -10 -10 -10 -10 -10 -10 -10 -10 -10 -10 -10 -10 -10 -10 -10 -10 -10 -10 -9 -9 -9 -9 -9 -9 -9
-7 -8 -8 -8 -8 -8 -8 -8 -9 -9 -9 -9 -9 -9 -9 -9 -9 -9 -9 -9 -9 -9 -10 -10 -10 -10 -10 -10 -10 -10 -10 -10 -10 -10 -10 -10 -10 -10 -10 -10 -10 -10 -10 -10 -9 -9 -9 -9 -9
-7 -8 -8 -8 -8 -8 -8 -9 -8 -9 -9 -9 -9 -9 -9 -9 -9 -9 -9 -9 -9 -10 -10 -10 -10 -10 -10 -10 -10 -10 -10 -10 -10 -10 -10 -10 -10 -10 -10 -10 -10 -10 -10 -9 -9 -9 -10 -10 -9
-7 -7 -8 -8 -8 -8 -8 -9 -9 -8 -8 -9 -9 -9 -9 -9 -9 -9 -10 -10 -10 -10 -10 -10 -10 -10 -10 -10 -10 -10 -10 -10 -10 -10 -10 -10 -10 -10 -10 -10 -10 -10 -10 -10 -10 -10 -10 -10 -9
-7 -7 -8 -8 -8 -8 -8 -8 -8 -8 -8 -8 -9 -9 -9 -9 -10 -10 -10 -10 -10 -10 -10 -10 -10 -10 -11 -11 -11 -11 -11 -11 -11 -11 -11 -11 -11 -11 -11 -11 -11 -10 -11 -11 -10 -11 -11 -10 -10
-7 -8 -8 -7 -7 -8 -8 -8 -8 -9 -9 -9 -9 -10 -10 -10 -10 -10 -11 -11 -11 -11 -11 -11 -11 -11 -11 -11 -11 -11 -11 -11 -11 -11 -11 -11 -11 -11 -11 -11 -11 -11 -11 -11 -11 -11 -11 -11 -11
-7 -7 -7 -8 -7 -9 -9 -9 -9 -9 -10 -10 -10 -10 -10 -10 -10 -10 -11 -11 -11 -11 -11 -11 -11 -11 -11 -11 -11 -11 -11 -11 -12 -11 -11 -11 -11 -11 -11 -11 -11 -11 -11 -11 -11 -11 -11 -11 -11
-7 -8 -8 -8 -9 -9 -9 -10 -10 -10 -10 -10 -10 -10 -10 -10 -11 -11 -11 -11 -12 -12 -12 -12 -12 -12 -12 -12 -12 -12 -12 -12 -12 -12 -12 -12 -12 -11 -11 -11 -11 -11 -11 -11 -11 -11 -11 -11 -11
-8 -8 -9 -9 -9 -9 -9 -9 -9 -9 -9 -9 -10 -10 -10 -10 -11 -12 -12 -12 -13 -13 -13 -13 -13 -13 -13 -13 -13 -13 -12 -12 -12 -12 -13 -12 -12 -13 -12 -12 -12 -12 -12 -12 -11 -11 -11 -11 -11
-8 -8 -8 -8 -8 -8 -8 -8 -8 -9 -9 -9 -10 -10 -10 -10 -11 -11 -12 -12 -12 -13 -13 -13 -14 -14 -14 -14 -14 -14 -14 -14 -14 -14 -13 -13 -13 -13 -13 -13 -13 -13 -13 -13 -13 -12 -12 -12 -11
-8 -8 -8 -8 -8 -8 -8 -8 -8 -9 -9 -9 -9 -9 -9 -10 -11 -11 -12 -12 -13 -13 -14 -15 -15 -15 -15 -15 -15 -15 -15 -15 -15 -15 -14 -15 -15 -15 -14 -14 -14 -13 -13 -13 -13 -13 -13 -12 -12
-8 -8 -8 -8 -8 -8 -8 -8 -9 -9 -9 -10 -10 -10 -10 -11 -11 -11 -12 -13 -14 -14 -15 -15 -16 -17 -17 -17 -16 -16 -16 -16 -16 -16 -16 -16 -16 -16 -15 -15 -15 -15 -14 -14 -13 -13 -13 -13 -12
-8 -8 -8 -9 -9 -8 -9 -9 -10 -10 -10 -10 -10 -11 -11 -12 -13 -13 -14 -14 -15 -16 -17 -18 -18 -19 -19 -19 -19 -18 -18 -17 -17 -17 -17 -17 -17 -17 -16 -16 -16 -16 -16 -14 -14 -13 -13 -12 -12
-8 -8 -8 -9 -9 -9 -10 -10 -10 -10 -11 -11 -11 -12 -12 -13 -14 -15 -16 -17 -18 -19 -20 -21 -21 -21 -21 -21 -21 -21 -20 -21 -20 -19 -18 -18 -18 -18 -18 -17 -17 -17 -16 -16 -15 -14 -13 -13 -13
-8 -9 -9 -9 -10 -10 -10 -11 -11 -11 -12 -12 -13 -14 -16 -16 -17 -17 -18 -20 -21 -22 -23 -23 -23 -24 -24 -24 -23 -23 -23 -23 -22 -22 -22 -21 -20 -19 -18 -18 -18 -18 -18 -17 -16 -16 -15 -14 -14
-9 -9 -9 -10 -10 -10 -11 -10 -11 -12 -13 -13 -14 -16 -17 -17 -18 -20 -22 -23 -24 -24 -25 -26 -25 -25 -25 -25 -25 -25 -24 -24 -24 -25 -24 -23 -23 -23 -23 -20 -19 -19 -18 -18 -17 -17 -16 -16 -15
-9 -10 -10 -10 -10 -11 -11 -11 -12 -12 -12 -14 -15 -17 -17 -18 -20 -22 -24 -25 -26 -26 -26 -26 -25 -25 -26 -25 -25 -25 -25 -25 -26 -26 -26 -26 -25 -26 -25 -24 -23 -21 -20 -19 -19 -18 -17 -17 -17
-10 -10 -10 -10 -11 -11 -11 -10 -11 -12 -13 -15 -17 -18 -20 -23 -24 -25 -25 -25 -25 -26 -26 -26 -26 -26 -26 -26 -26 -26 -25 -25 -25 -26 -26 -27 -28 -27 -27 -27 -26 -24 -24 -22 -22 -20 -18 -17 -17
-10 -10 -10 -10 -10 -11 -11 -12 -10 -12 -15 -17 -18 -20 -22 -24 -24 -25 -25 -26 -26 -26 -26 -26 -26 -27 -27 -26 -26 -26 -26 -26 -26 -26 -26 -27 -28 -29 -29 -29 -29 -28 -27 -26 -25 -24 -22 -20 -18
-10 -10 -10 -10 -10 -10 -11 -12 -11 -13 -16 -17 -18 -21 -24 -25 -25 -26 -26 -26 -26 -26 -27 -27 -27 -27 -27 -26 -26 -26 -26 -26 -26 -26 -26 -26 -27 -28 -28 -29 -29 -29 -29 -28 -28 -28 -27 -26 -23
-10 -10 -10 -10 -10 -10 -12 -13 -12 -15 -17 -18 -21 -24 -25 -25 -25 -26 -26 -26 -26 -26 -26 -26 -26 -26 -26 -27 -27 -26 -26 -25 -26 -26 -26 -26 -26 -27 -27 -28 -28 -29 -29 -29 -29 -29 -28 -28 -27
-11 -11 -10 -10 -11 -12 -12 -13 -14 -16 -18 -21 -24 -25 -25 -26 -26 -26 -25 -24 -24 -24 -24 -25 -25 -25 -25 -24 -25 -25 -25 -25 -25 -26 -26 -26 -27 -27 -27 -27 -28 -28 -28 -28 -28 -28 -28 -28 -28
-11 -11 -11 -12 -12 -12 -12 -14 -16 -16 -18 -23 -24 -25 -26 -26 -25 -24 -23 -23 -23 -23 -23 -24 -24 -24 -24 -24 -24 -24 -24 -23 -24 -24 -25 -25 -25 -26 -26 -27 -27 -27 -28 -28 -28 -28 -28 -28 -27
-11 -11 -11 -12 -12 -12 -14 -15 -15 -16 -19 -22 -23 -24 -24 -23 -23 -23 -23 -22 -22 -22 -23 -23 -23 -23 -23 -23 -23 -23 -23 -23 -22 -23 -23 -23 -24 -25 -25 -25 -25 -26 -27 -27 -27 -27 -27 -27 -27
-12 -12 -12 -12 -13 -13 -14 -16 -16 -17 -20 -22 -22 -23 -22 -22 -22 -22 -22 -22 -22 -22 -22 -22 -22 -22 -21 -21 -22 -22 -22 -22 -22 -22 -22 -22 -23 -24 -25 -25 -25 -25 -25 -26 -27 -28 -27 -27 -27
-12 -11 -12 -12 -14 -15 -16 -18 -17 -19 -22 -22 -23 -22 -22 -22 -22 -21 -21 -21 -21 -21 -21 -21 -21 -21 -21 -20 -20 -21 -21 -21 -21 -21 -22 -22 -23 -23 -24 -24 -24 -25 -26 -26 -26 -26 -27 -27 -27
-12 -12 -12 -13 -14 -15 -16 -18 -18 -21 -23 -22 -23 -22 -22 -22 -21 -21 -21 -21 -20 -20 -20 -20 -20 -20 -19 -19 -19 -20 -20 -20 -20 -21 -21 -22 -22 -22 -23 -24 -25 -25 -26 -26 -27 -27 -26 -26 -26
Height
5899 5898 5898 5897 5899 5896 5895 5894 5892 5890 5889 5886 5884 5882 5879 5876 5874 5874 5869 5868 5865 5862 5860 5857 5855 5853 5850 5849 5847 5846 5845 5845 5844 5844 5844 5843 5842 5841 5840 5840 5841 5841 5841 5841 5840 5840 5840 5839 5840
5899 5898 5897 5897 5897 5895 5894 5892 5890 5888 5886 5884 5881 5879 5876 5874 5871 5869 5866 5863 5861 5859 5857 5854 5853 5850 5846 5843 5842 5841 5839 5838 5838 5838 5838 5837 5836 5836 5834 5834 5834 5834 5834 5834 5835 5835 5835 5835 5835
5898 5898 5898 5896 5895 5894 5892 5890 5888 5886 5883 5880 5878 5875 5873 5870 5868 5865 5862 5859 5857 5854 5852 5850 5848 5845 5842 5838 5838 5836 5835 5833 5833 5833 5831 5830 5831 5829 5827 5827 5827 5827 5827 5828 5829 5829 5830 5830 5831
5897 5897 5896 5895 5893 5891 5889 5887 5885 5882 5880 5877 5874 5871 5869 5866 5864 5861 5857 5854 5852 5849 5846 5844 5841 5838 5836 5834 5833 5832 5830 5828 5827 5826 5825 5823 5823 5820 5820 5820 5820 5820 5821 5821 5821 5822 5823 5824 5825
5896 5895 5894 5893 5891 5890 5888 5886 5883 5880 5878 5875 5872 5869 5866 5864 5861 5858 5854 5851 5847 5844 5841 5838 5836 5833 5830 5828 5826 5825 5823 5820 5818 5818 5818 5817 5815 5813 5812 5812 5812 5812 5813 5813 5815 5816 5816 5817 5818
5896 5895 5894 5892 5890 5888 5886 5884 5881 5878 5875 5873 5870 5867 5864 5861 5858 5854 5851 5847 5843 5839 5836 5832 5829 5827 5824 5821 5820 5818 5815 5814 5811 5809 5808 5808 5807 5806 5805 5804 5803 5802 5805 5804 5805 5806 5807 5809 5811
5897 5896 5894 5891 5889 5887 5885 5882 5879 5876 5873 5870 5867 5863 5861 5858 5854 5850 5846 5842 5838 5833 5829 5826 5822 5819 5816 5813 5811 5808 5806 5805 5804 5802 5800 5798 5798 5796 5796 5796 5795 5794 5795 5793 5790 5794 5797 5799 5801
5895 5894 5891 5890 5888 5886 5883 5880 5877 5874 5871 5867 5863 5859 5856 5852 5848 5843 5838 5834 5830 5825 5820 5816 5813 5809 5805 5802 5800 5798 5796 5794 5793 5791 5790 5789 5787 5786 5785 5785 5785 5784 5784 5785 5784 5783 5785 5789 5791
5895 5894 5891 5889 5887 5884 5879 5876 5873 5870 5866 5861 5857 5853 5848 5844 5839 5834 5829 5824 5819 5815 5812 5808 5803 5799 5795 5791 5789 5786 5784 5782 5780 5779 5778 5777 5776 5776 5775 5774 5774 5774 5773 5773 5774 5775 5776 5777 5779
5894 5892 5889 5886 5883 5880 5876 5872 5869 5865 5861 5857 5853 5847 5842 5836 5830 5825 5819 5814 5809 5804 5800 5795 5791 5787 5784 5780 5777 5773 5771 5769 5767 5766 5764 5763 5763 5762 5762 5762 5762 5762 5762 5761 5762 5763 5765 5767 5768
5892 5890 5886 5885 5882 5880 5876 5873 5868 5862 5857 5852 5846 5840 5834 5828 5822 5815 5809 5803 5797 5791 5785 5780 5775 5771 5766 5763 5760 5757 5755 5752 5751 5749 5748 5748 5746 5746 5746 5746 5747 5748 5749 5750 5750 5751 5752 5754 5756
5891 5890 5887 5885 5882 5879 5874 5869 5862 5858 5852 5845 5839 5832 5825 5818 5811 5804 5797 5790 5783 5776 5770 5763 5757 5752 5747 5742 5740 5737 5734 5732 5730 5730 5730 5730 5728 5728 5728 5729 5730 5731 5732 5734 5736 5737 5738 5740 5742
5890 5888 5886 5882 5878 5873 5868 5862 5857 5851 5845 5839 5832 5824 5817 5808 5799 5789 5781 5773 5765 5757 5749 5743 5737 5731 5726 5721 5718 5715 5713 5711 5709 5707 5706 5706 5706 5707 5708 5709 5711 5712 5713 5715 5718 5720 5722 5724 5726
5889 5886 5883 5879 5874 5868 5863 5858 5850 5844 5836 5828 5820 5811 5802 5792 5782 5773 5764 5755 5746 5737 5728 5721 5714 5707 5701 5696 5692 5689 5685 5683 5683 5683 5682 5682 5682 5682 5683 5685 5688 5690 5692 5694 5696 5700 5703 5707 5711
5886 5883 5878 5873 5869 5864 5859 5853 5846 5838 5829 5819 5809 5799 5788 5777 5765 5756 5746 5735 5724 5715 5705 5696 5688 5680 5674 5668 5663 5659 5654 5652 5650 5650 5651 5652 5653 5654 5655 5658 5661 5664 5667 5671 5674 5678 5683 5687 5691
5882 5878 5872 5868 5862 5856 5850 5844 5836 5827 5817 5807 5796 5784 5771 5759 5747 5736 5724 5712 5700 5689 5680 5670 5659 5651 5644 5639 5636 5632 5628 5624 5622 5619 5619 5621 5621 5623 5627 5630 5632 5634 5637 5643 5649 5654 5659 5665 5670
5879 5875 5870 5865 5860 5852 5844 5834 5825 5816 5806 5795 5783 5770 5756 5743 5729 5715 5702 5688 5675 5662 5652 5642 5632 5622 5613 5608 5603 5598 5595 5593 5592 5590 5590 5592 5589 5592 5594 5599 5604 5605 5609 5615 5622 5628 5634 5641 5647
5876 5872 5867 5862 5856 5846 5838 5826 5816 5806 5795 5781 5767 5753 5738 5722 5707 5691 5676 5662 5651 5637 5627 5616 5606 5597 5588 5581 5576 5570 5565 5560 5557 5557 5559 5558 5558 5559 5561 5567 5573 5577 5583 5588 5594 5600 5607 5615 5623
5873 5868 5863 5855 5846 5836 5829 5819 5807 5794 5777 5761 5747 5732 5718 5702 5684 5668 5652 5639 5627 5615 5605 5598 5590 5581 5572 5566 5560 5555 5549 5543 5535 5527 5524 5524 5525 5530 5530 5534 5539 5544 5551 5559 5565 5571 5580 5588 5593
5868 5862 5855 5846 5838 5829 5819 5808 5792 5777 5760 5746 5731 5716 5701 5683 5664 5651 5637 5624 5612 5603 5593 5585 5577 5569 5560 5551 5545 5538 5533 5529 5522 5515 5509 5504 5502 5500 5503 5505 5511 5517 5520 5528 5536 5542 5551 5561 5566
5862 5856 5850 5841 5831 5821 5807 5794 5777 5762 5746 5730 5714 5697 5677 5658 5644 5635 5625 5615 5605 5595 5584 5573 5565 5557 5547 5537 5530 5524 5518 5512 5507 5503 5498 5492 5486 5485 5484 5486 5488 5493 5495 5501 5509 5515 5521 5530 5536
5857 5851 5843 5833 5822 5809 5793 5779 5770 5751 5733 5717 5701 5682 5662 5647 5637 5625 5614 5603 5591 5580 5570 5560 5551 5543 5532 5525 5518 5511 5505 5501 5496 5490 5485 5481 5477 5474 5472 5472 5471 5473 5475 5478 5484 5487 5493 5499 5510
5852 5844 5835 5825 5813 5798 5787 5774 5756 5740 5724 5708 5690 5666 5653 5640 5627 5617 5605 5594 5584 5572 5559 5549 5540 5531 5520 5513 5505 5498 5492 5488 5483 5478 5473 5468 5466 5462 5460 5459 5459 5459 5460 5461 5464 5467 5470 5475 5480
5844 5837 5829 5817 5802 5791 5780 5765 5746 5729 5710 5691 5673 5658 5644 5633 5622 5610 5598 5586 5576 5565 5553 5542 5532 5524 5514 5505 5497 5487 5480 5476 5472 5467 5461 5457 5453 5450 5448 5448 5447 5447 5448 5449 5452 5454 5456 5460 5464
5839 5831 5820 5809 5797 5786 5774 5758 5738 5720 5702 5674 5654 5648 5639 5626 5614 5603 5591 5579 5569 5559 5549 5538 5527 5518 5507 5497 5488 5479 5471 5464 5460 5456 5452 5447 5443 5440 5437 5433 5432 5433 5435 5437 5440 5443 5445 5448 5451
5831 5821 5813 5800 5792 5779 5765 5749 5732 5713 5693 5673 5657 5646 5636 5625 5612 5601 5589 5577 5567 5557 5546 5535 5525 5514 5504 5493 5483 5474 5465 5458 5452 5446 5441 5437 5433 5429 5425 5421 5420 5420 5420 5422 5424 5428 5432 5434 5438
5824 5816 5808 5798 5784 5767 5755 5734 5725 5709 5689 5674 5659 5644 5632 5619 5608 5598 5588 5579 5568 5556 5544 5532 5521 5511 5500 5489 5479 5469 5460 5452 5446 5440 5434 5428 5424 5420 5415 5412 5409 5407 5407 5408 5410 5413 5418 5422 5426
5821 5812 5801 5788 5774 5762 5747 5727 5714 5698 5678 5666 5653 5639 5628 5619 5609 5601 5592 5580 5569 5557 5544 5530 5518 5506 5495 5485 5474 5464 5456 5448 5441 5434 5428 5422 5416 5411 5407 5404 5401 5399 5397 5396 5397 5400 5404 5409 5413
5815 5806 5796 5784 5771 5752 5735 5719 5702 5684 5669 5659 5648 5639 5630 5621 5612 5604 5593 5582 5568 5555 5542 5530 5518 5507 5494 5483 5474 5464 5456 5447 5438 5431 5423 5416 5411 5406 5401 5398 5394 5393 5391 5390 5389 5391 5395 5399 5404
5811 5800 5791 5779 5766 5749 5735 5718 5693 5678 5668 5659 5650 5642 5634 5625 5615 5606 5594 5582 5568 5556 5544 5532 5520 5508 5496 5487 5478 5467 5458 5449 5441 5431 5422 5414 5408 5402 5397 5393 5389 5387 5388 5387 5385 5385 5389 5393 5398
Wind_Speed
8 6 4 4 5 5 6 7 8 10 11 13 14 16 18 20 21 21 22 22 22 23 24 26 26 27 27 27 27 27 26 27 30 28 28 28 28 28 26 27 27 29 28 27 26 25 24 23 23
5 4 4 5 6 7 9 10 11 12 13 14 15 16 18 21 22 23 25 26 26 26 26 26 28 29 31 29 29 29 29 28 29 30 31 31 30 30 28 28 26 26 28 28 27 27 27 26 25
5 5 6 7 8 10 13 13 14 14 15 16 17 18 19 21 22 24 26 27 28 30 30 30 29 30 30 30 29 32 32 32 31 32 32 32 31 34 32 32 31 30 29 29 30 29 28 27 27
5 7 8 9 11 13 15 17 18 18 18 18 19 20 21 22 23 24 27 29 30 31 33 34 34 35 33 34 33 35 37 36 35 33 35 34 34 34 37 35 34 33 33 33 32 31 30 30 29
8 9 10 11 13 16 16 17 18 18 18 19 20 21 23 24 25 26 28 30 33 32 33 34 36 37 38 39 36 36 38 40 41 38 38 38 38 37 37 38 41 36 36 37 36 35 34 33 32
11 12 14 16 17 17 16 16 17 18 19 20 21 22 24 25 26 28 30 32 34 37 38 38 38 38 39 41 40 39 40 40 42 43 41 39 41 40 39 39 39 39 37 34 40 40 39 37 35
14 13 13 13 12 12 13 15 16 17 19 20 21 23 24 26 28 30 32 34 37 39 41 42 43 43 42 43 43 42 43 44 44 45 46 44 43 43 43 43 43 43 42 48 38 36 44 41 40
10 10 10 10 11 12 14 15 17 18 18 20 22 24 26 28 30 32 35 37 39 42 44 46 47 47 48 47 46 46 47 46 47 48 47 47 46 45 45 46 45 47 47 45 45 45 39 38 42
10 11 10 11 13 14 12 14 17 19 19 21 24 27 30 32 35 38 40 43 45 47 48 50 52 53 54 53 53 52 52 53 54 53 53 53 53 50 51 50 50 50 50 50 47 47 44 45 40
9 9 7 8 8 9 13 16 21 24 26 29 33 37 40 43 45 48 49 50 51 53 55 56 57 59 61 62 64 64 63 61 61 61 60 60 60 59 58 58 57 55 55 54 53 51 49 48 47
6 5 5 9 14 18 25 29 34 35 35 38 40 42 46 49 50 52 54 56 57 58 60 62 63 66 67 67 69 71 72 71 70 69 69 68 68 66 66 67 65 64 63 62 61 59 56 54 52
5 9 14 23 31 38 40 40 41 43 45 46 49 50 52 55 57 58 60 62 63 65 65 67 69 70 73 74 75 76 77 76 76 75 74 72 70 70 70 71 71 71 70 69 69 68 66 63 61
15 19 23 28 30 32 36 41 42 44 46 49 52 55 58 62 65 66 68 69 70 71 73 74 75 77 77 77 78 81 81 79 78 77 78 76 81 79 77 77 76 76 75 74 74 72 70 71 70
17 22 27 29 30 34 37 40 43 44 44 46 51 57 64 68 71 73 73 74 75 77 76 76 76 79 80 80 82 84 86 88 87 87 87 85 82 84 83 81 83 84 83 82 80 78 77 74 74
21 24 27 30 33 36 38 39 42 46 50 52 54 59 63 68 71 74 76 78 78 80 82 81 80 81 82 84 86 87 87 87 88 89 89 88 90 91 90 88 86 89 91 90 88 87 84 81 80
25 26 30 32 35 37 37 40 45 49 52 55 59 63 67 70 72 74 79 81 82 82 85 87 88 89 90 90 89 88 89 94 95 96 97 97 96 98 97 93 92 91 94 95 95 95 93 90 88
25 27 30 29 32 37 41 45 47 48 52 57 62 67 71 72 74 77 80 83 85 85 85 86 88 88 90 90 90 91 91 91 92 99 102 105 106 104 102 100 98 100 100 101 101 101 101 98 95
24 27 28 31 38 42 41 46 51 52 54 59 64 66 68 74 81 83 84 82 82 83 83 83 78 72 68 67 69 73 74 79 85 89 94 98 102 106 107 105 102 100 104 104 104 103 104 105 102
26 27 31 39 44 46 45 52 53 57 63 66 71 74 78 82 87 84 81 80 75 64 55 53 53 54 54 52 52 50 49 51 55 63 69 75 85 98 101 106 104 102 103 105 107 105 106 106 107
28 31 36 44 47 46 51 57 59 69 72 76 77 80 87 89 86 79 65 53 51 52 55 56 56 58 57 56 54 51 45 40 41 43 47 54 60 62 67 77 89 100 102 102 99 100 102 103 107
29 33 40 46 48 51 57 65 73 76 80 79 81 87 83 75 65 50 47 48 51 51 53 56 54 52 52 52 50 49 47 45 42 40 38 37 39 43 46 50 54 62 74 86 93 99 102 105 106
33 38 44 48 52 58 64 71 77 78 79 82 86 79 72 57 49 50 52 54 56 56 55 56 53 52 50 48 49 49 50 43 40 40 38 37 36 36 38 42 45 47 47 52 57 67 80 90 99
37 42 47 50 56 63 66 72 78 79 83 85 87 73 53 49 51 53 54 55 52 55 56 52 49 46 43 45 49 50 41 39 39 36 35 34 36 35 36 40 45 45 45 45 45 47 50 57 69
41 44 48 53 59 66 70 73 80 81 86 89 71 50 50 52 53 53 53 51 47 41 40 41 41 40 42 44 47 45 41 38 37 35 35 33 32 34 39 39 39 41 42 43 43 45 46 47 50
42 45 51 56 62 65 70 73 78 83 86 74 56 51 52 55 57 54 46 41 41 41 41 42 42 39 39 37 33 31 33 35 34 35 36 34 34 34 35 39 44 46 45 46 46 47 48 48 49
44 49 52 57 62 67 71 74 79 85 83 56 49 51 54 52 46 41 43 45 48 46 45 44 43 41 39 39 36 33 28 26 24 24 25 24 24 27 31 35 40 44 47 49 50 51 51 51 49
46 49 53 57 64 70 71 76 82 87 71 52 48 51 48 43 43 46 48 49 46 46 46 45 43 41 38 35 33 32 32 30 26 21 19 17 18 19 23 26 27 28 37 46 46 45 45 46 43
46 49 55 61 65 68 71 77 83 86 66 51 47 46 43 43 46 47 46 47 49 48 46 50 51 45 40 37 34 36 37 35 32 28 25 23 17 19 20 21 23 23 26 29 39 43 42 39 35
46 50 56 61 64 68 74 77 85 75 56 51 47 42 42 45 45 43 44 48 50 51 52 49 46 44 42 38 37 34 33 33 35 30 26 23 23 22 16 21 21 19 15 18 25 28 33 33 32
45 51 56 59 62 66 71 77 83 64 50 48 41 39 40 43 41 42 48 48 46 50 50 47 45 44 44 38 37 37 36 34 37 40 37 31 18 17 14 8 8 18 17 10 9 17 24 25 26
Wind_Direction
65 59 46 23 13 355 326 319 313 300 292 290 294 296 297 298 297 296 295 293 290 288 288 292 291 288 282 278 277 274 271 265 261 264 269 272 270 266 261 259 254 251 254 251 246 241 241 239 236
49 31 8 352 349 329 313 312 311 310 304 299 297 296 295 295 296 298 297 298 295 292 291 291 291 287 283 279 278 275 271 268 265 260 259 262 261 261 259 256 253 247 244 247 244 242 239 237 235
16 359 346 340 331 318 317 319 315 310 305 304 303 301 299 295 295 294 293 293 293 295 295 293 288 287 289 287 280 282 278 274 269 265 261 259 258 260 259 255 254 250 245 241 240 241 240 237 236
353 340 336 330 322 315 313 315 313 311 312 312 309 306 304 302 299 297 295 295 294 292 293 291 289 287 282 280 280 277 279 275 271 269 267 264 259 257 257 257 258 258 253 247 242 238 241 240 237
330 326 320 313 309 314 317 317 318 322 322 320 317 316 312 311 311 308 304 301 299 296 295 293 291 288 285 283 278 276 274 273 273 268 267 264 263 261 256 258 257 254 256 252 249 247 241 240 241
318 320 320 325 329 330 330 330 331 331 331 329 325 322 321 319 317 312 310 304 300 299 298 295 292 289 286 284 282 277 273 270 270 271 266 264 263 261 259 257 257 252 246 249 251 247 245 244 241
328 336 343 347 347 347 342 341 339 337 336 331 324 322 320 317 313 309 304 300 297 295 293 293 291 290 285 282 278 275 272 270 266 265 266 264 262 261 258 256 257 258 255 254 251 241 240 240 240
15 15 10 7 1 355 354 353 350 342 335 328 323 319 313 309 305 302 298 295 291 289 289 288 287 284 281 277 273 270 269 266 264 264 263 261 258 257 256 257 254 255 258 256 255 259 247 238 244
29 30 27 20 14 10 348 335 334 330 320 311 310 305 304 302 301 298 295 293 291 290 289 287 285 283 280 277 272 268 265 265 263 261 261 260 259 258 257 254 252 251 252 254 254 256 255 253 246
50 48 34 22 355 339 326 324 325 322 319 321 318 317 315 313 311 309 306 303 300 298 293 288 284 282 281 279 277 274 269 264 263 263 261 259 259 258 257 255 254 251 251 251 250 249 251 251 251
37 30 348 345 342 341 342 342 335 332 328 324 321 317 315 311 307 302 300 297 294 289 286 285 283 279 276 276 275 273 271 269 266 264 262 260 256 255 256 255 254 253 252 252 252 251 249 249 249
4 355 357 0 355 353 349 343 342 334 328 325 322 319 316 312 307 302 298 295 292 288 285 282 280 276 275 274 272 271 269 267 265 264 261 257 255 256 254 252 252 253 253 253 252 252 251 249 248
4 355 354 351 347 343 333 330 331 330 327 325 321 319 316 313 310 305 302 298 294 291 286 284 281 279 275 273 271 270 269 268 267 265 263 260 258 258 257 255 252 251 252 252 251 250 250 250 249
350 350 349 344 337 333 329 323 325 321 315 314 313 312 309 308 307 305 301 298 294 291 288 283 278 275 274 272 271 268 266 266 267 266 262 261 262 259 258 257 257 255 253 250 248 248 249 248 249
350 349 339 337 335 335 329 330 322 319 317 315 310 306 304 302 300 298 297 294 293 290 287 285 282 278 275 271 268 267 266 266 263 261 259 259 257 257 255 255 254 254 254 253 250 248 247 247 247
345 341 338 340 337 327 320 320 318 316 314 310 306 303 301 300 300 298 296 297 296 294 292 289 287 285 283 282 278 273 267 262 261 260 259 259 257 256 253 252 250 249 248 248 250 250 249 247 247
339 336 333 335 331 321 319 318 318 317 313 308 304 302 301 301 301 303 303 301 298 296 294 293 292 290 288 286 284 281 276 271 266 265 264 263 264 261 257 254 251 249 249 248 249 248 249 250 248
336 333 330 329 329 328 322 319 321 317 316 312 308 310 310 313 314 312 308 303 300 298 296 295 295 295 295 293 290 287 283 281 277 272 266 261 260 259 261 259 256 255 254 252 250 250 251 250 248
333 330 330 331 331 327 326 325 325 324 325 324 324 320 321 320 316 312 308 307 306 306 303 301 301 302 303 303 302 298 296 293 288 284 278 271 265 259 259 259 258 258 256 254 253 251 250 250 251
329 330 332 331 329 328 330 332 330 334 331 327 323 324 324 319 315 314 312 313 313 313 313 310 309 307 304 301 301 303 303 301 298 290 283 276 271 270 265 260 257 256 256 253 254 256 255 252 251
327 330 331 330 331 332 334 337 339 335 330 327 329 329 322 317 319 322 320 320 317 316 316 313 309 307 305 303 304 303 303 304 301 298 301 295 286 276 270 266 263 259 256 255 254 253 253 253 253
329 329 332 333 334 338 342 338 337 333 330 332 332 325 322 327 329 330 328 325 323 323 320 319 316 312 307 300 299 301 302 303 302 299 296 292 290 282 268 265 268 268 262 256 250 248 249 250 251
328 331 335 337 339 342 341 339 335 332 332 333 332 327 332 335 335 333 329 325 327 321 320 318 316 317 313 305 304 304 301 296 301 299 294 291 283 280 274 269 265 267 266 264 261 257 254 250 249
330 333 337 338 343 343 340 337 335 334 336 337 331 340 340 340 337 336 333 330 333 336 335 332 329 322 314 308 307 308 302 295 297 299 296 291 289 279 274 270 266 263 261 259 257 256 255 254 253
330 333 339 344 344 340 340 339 336 339 342 337 342 346 345 346 342 340 344 350 351 351 350 348 346 347 341 339 329 317 307 303 302 299 297 296 292 284 277 269 263 260 258 256 253 252 251 252 253
334 338 344 343 343 341 343 339 338 344 346 346 345 346 349 345 349 356 358 1 1 3 3 2 360 357 354 350 347 343 339 337 333 319 307 297 286 283 277 268 264 262 260 258 255 252 252 254 255
335 342 344 343 345 343 344 339 342 347 349 351 351 354 354 1 5 6 5 7 9 5 1 357 354 350 347 344 338 336 334 332 329 326 325 313 297 285 278 272 269 265 257 254 255 254 253 252 251
339 343 344 345 344 343 342 341 346 349 353 359 359 3 9 11 10 11 12 11 5 2 2 3 359 356 350 348 341 335 339 338 335 329 323 318 309 289 276 272 273 271 264 255 249 248 247 249 244
342 345 348 346 346 342 343 347 350 353 358 3 5 12 12 12 9 13 11 6 5 6 5 2 1 3 3 359 1 1 2 360 354 352 341 331 322 315 302 297 287 263 272 271 253 246 243 240 235
345 347 348 346 346 344 347 352 351 354 360 2 5 13 13 10 10 10 5 8 5 4 4 7 11 16 16 17 14 17 17 18 21 17 14 8 346 346 355 329 321 283 264 283 287 243 236 232 226